TimeCDT,TemperatureF,Dew PointF,Humidity,Sea Level PressureIn,VisibilityMPH,Wind Direction,Wind SpeedMPH,Gust SpeedMPH,PrecipitationIn,Events,Conditions,WindDirDegrees,DateUTC
12:53 AM,37.9,27.0,65,30.32,10.0,NW,5.8,-,N/A,,Overcast,320,2012-10-07 05:53:00
1:53 AM,37.0,27.0,67,30.33,10.0,WNW,5.8,-,N/A,,Overcast,300,2012-10-07 06:53:00
2:53 AM,37.9,26.1,62,30.32,10.0,West,4.6,-,N/A,,Partly Cloudy,280,2012-10-07 07:53:00
3:53 AM,36.0,26.1,67,30.30,10.0,WNW,3.5,-,N/A,,Clear,290,2012-10-07 08:53:00
4:53 AM,34.0,26.1,73,30.30,10.0,West,4.6,-,N/A,,Clear,280,2012-10-07 09:53:00
5:53 AM,33.1,26.1,75,30.30,10.0,West,5.8,-,N/A,,Clear,270,2012-10-07 10:53:00
6:53 AM,30.9,25.0,79,30.30,10.0,WNW,5.8,-,N/A,,Clear,290,2012-10-07 11:53:00
7:53 AM,28.0,24.1,85,30.32,10.0,WSW,3.5,-,N/A,,Clear,250,2012-10-07 12:53:00
8:53 AM,35.1,28.9,78,30.33,10.0,SW,4.6,-,N/A,,Clear,230,2012-10-07 13:53:00
9:53 AM,42.1,26.1,53,30.33,10.0,West,4.6,-,N/A,,Clear,260,2012-10-07 14:53:00
10:53 AM,48.0,25.0,41,30.32,10.0,Calm,Calm,-,N/A,,Partly Cloudy,0,2012-10-07 15:53:00
11:53 AM,51.1,25.0,36,30.30,10.0,Variable,3.5,-,N/A,,Scattered Clouds,0,2012-10-07 16:53:00
12:53 PM,52.0,21.0,30,30.27,10.0,West,3.5,18.4,N/A,,Mostly Cloudy,270,2012-10-07 17:53:00
1:53 PM,54.0,19.9,26,30.23,10.0,WNW,10.4,-,N/A,,Mostly Cloudy,300,2012-10-07 18:53:00
2:53 PM,55.0,23.0,29,30.19,10.0,West,4.6,-,N/A,,Mostly Cloudy,260,2012-10-07 19:53:00
3:53 PM,55.9,23.0,28,30.17,10.0,SW,10.4,-,N/A,,Scattered Clouds,230,2012-10-07 20:53:00
4:53 PM,55.0,23.0,29,30.16,10.0,SW,6.9,-,N/A,,Partly Cloudy,230,2012-10-07 21:53:00
5:53 PM,54.0,21.9,29,30.16,10.0,SW,8.1,-,N/A,,Partly Cloudy,230,2012-10-07 22:53:00
6:53 PM,51.1,21.9,32,30.15,10.0,SW,3.5,-,N/A,,Partly Cloudy,230,2012-10-07 23:53:00
7:53 PM,46.0,23.0,40,30.16,10.0,South,5.8,-,N/A,,Partly Cloudy,180,2012-10-08 00:53:00
8:53 PM,39.9,24.1,53,30.16,10.0,South,6.9,-,N/A,,Partly Cloudy,180,2012-10-08 01:53:00
9:53 PM,41.0,25.0,53,30.17,10.0,SSW,6.9,-,N/A,,Partly Cloudy,200,2012-10-08 02:53:00
10:53 PM,39.9,25.0,55,30.16,10.0,SSW,6.9,-,N/A,,Clear,200,2012-10-08 03:53:00
11:53 PM,37.9,25.0,60,30.14,10.0,South,6.9,-,N/A,,Clear,190,2012-10-08 04:53:00